{"data":{"norad_id":67187,"epoch":"2026-09-20T09:11:02.681952Z","epoch_age_seconds":89126,"freshness":"FRESH","line1":"1 67187U 25303AA  26263.38266993  .00009551  00000+0  35610-3 0  9994","line2":"2 67187  43.0011 290.9504 0000627 284.1603  75.9178 15.27583838 42517","mean_motion":15.27583838,"eccentricity":6.27e-5,"inclination_deg":43.0011,"raan_deg":290.9504,"arg_perigee_deg":284.1603,"mean_anomaly_deg":75.9178,"bstar":0.0003561,"rev_number":4251,"period_min":94.266511871802,"perigee_km":482.60740806335,"apogee_km":483.46779935865,"semimajor_km":6861.174603711,"source":"CELESTRAK","updated_at":"2026-09-21T09:00:36.133602Z"}}